| time (UTC) | temp F | wind direction | speed knots | gust knots | rain 1hr in | rain 24hr in | rain mn in | humidity % | barometer mb |
| 20260508083012 | 50 | 158 | 0.0 | 2.6 | 0.00 | 0.00 | 0.00 | 63 | 1018.2 |
| 20260508081510 | 50 | 129 | 0.0 | 0.9 | 0.00 | 0.00 | 0.00 | 62 | 1018.0 |
| 20260508080007 | 51 | 264 | 0.0 | 0.9 | 0.00 | 0.00 | 0.00 | 62 | 1017.9 |
| 20260508074526 | 51 | 243 | 0.0 | 2.6 | 0.00 | 0.00 | 0.00 | 61 | 1017.8 |
| 20260508073025 | 51 | 224 | 0.0 | 0.9 | 0.00 | 0.00 | 0.00 | 61 | 1017.5 |
| 20260508071522 | 51 | 141 | 0.0 | 0.9 | 0.00 | 0.00 | 0.00 | 61 | 1017.4 |
| 20260508070020 | 52 | 135 | 0.0 | 0.0 | 0.00 | 0.00 | 0.00 | 60 | 1017.5 |
| 20260508064525 | 52 | 162 | 0.0 | 0.9 | 0.00 | 0.00 | 0.00 | 59 | 1017.4 |
| 20260508063013 | 53 | 195 | 0.0 | 0.9 | 0.00 | 0.00 | 0.00 | 59 | 1017.4 |
| 20260508061512 | 53 | 244 | 0.0 | 0.9 | 0.00 | 0.00 | 0.00 | 58 | 1017.2 |
| 20260508060029 | 54 | 325 | 0.0 | 2.6 | 0.00 | 0.00 | 0.00 | 58 | 1017.3 |
| 20260508054527 | 54 | 291 | 0.0 | 1.7 | 0.00 | 0.00 | 0.00 | 57 | 1017.4 |
| 20260508053030 | 55 | 222 | 0.0 | 0.9 | 0.00 | 0.00 | 0.00 | 56 | 1017.4 |
| 20260508051530 | 56 | 221 | 0.0 | 0.9 | 0.00 | 0.00 | 0.00 | 55 | 1017.3 |
| 20260508050021 | 56 | 215 | 0.0 | 3.5 | 0.00 | 0.00 | 0.00 | 55 | 1017.3 |
| 20260508044518 | 57 | 324 | 0.0 | 0.9 | 0.00 | 0.00 | 0.00 | 53 | 1017.3 |
| 20260508043020 | 58 | 337 | 0.0 | 0.9 | 0.00 | 0.00 | 0.00 | 52 | 1017.3 |
| 20260508041528 | 58 | 214 | 0.0 | 0.9 | 0.00 | 0.00 | 0.00 | 51 | 1017.1 |
| 20260508040029 | 59 | 319 | 0.0 | 2.6 | 0.00 | 0.00 | 0.00 | 50 | 1016.8 |
| 20260508034504 | 60 | 314 | 0.0 | 1.7 | 0.00 | 0.00 | 0.00 | 50 | 1016.7 |
| 20260508033004 | 62 | 272 | 0.0 | 2.6 | 0.00 | 0.00 | 0.00 | 49 | 1016.6 |
| 20260508031504 | 63 | 325 | 0.0 | 3.5 | 0.00 | 0.00 | 0.00 | 48 | 1016.4 |
| 20260508030003 | 65 | 321 | 0.0 | 1.7 | 0.00 | 0.00 | 0.00 | 46 | 1016.5 |
| 20260508024503 | 67 | 308 | 0.0 | 0.9 | 0.00 | 0.00 | 0.00 | 45 | 1016.5 |
| 20260508023004 | 70 | 188 | 0.0 | 0.9 | 0.00 | 0.00 | 0.00 | 42 | 1016.4 |
| 20260508021505 | 71 | 122 | 0.0 | 0.9 | 0.00 | 0.00 | 0.00 | 31 | 1016.2 |
| 20260508020010 | 72 | 222 | 0.0 | 0.9 | 0.00 | 0.00 | 0.00 | 37 | 1016.2 |
| 20260508014510 | 73 | 301 | 0.0 | 0.9 | 0.00 | 0.00 | 0.00 | 36 | 1016.3 |
| 20260508013003 | 73 | 7 | 0.0 | 0.0 | 0.00 | 0.00 | 0.00 | 35 | 1016.5 |
| 20260508011503 | 75 | 171 | 0.0 | 0.9 | 0.00 | 0.00 | 0.00 | 33 | 1016.6 |
| 20260508010004 | 75 | 63 | 0.0 | 0.9 | 0.00 | 0.00 | 0.00 | 32 | 1016.6 |
| 20260508004510 | 75 | 120 | 0.0 | 0.0 | 0.00 | 0.00 | 0.00 | 33 | 1016.7 |
| 20260508003006 | 75 | 68 | 0.0 | 0.9 | 0.00 | 0.00 | 0.00 | 31 | 1016.9 |
| 20260508001509 | 75 | 114 | 0.0 | 0.9 | 0.00 | 0.00 | 0.00 | 31 | 1017.1 |
| 20260508000011 | 75 | 58 | 0.0 | 0.9 | 0.00 | 0.00 | 0.00 | 30 | 1017.0 |
| 20260507234506 | 75 | 120 | 0.0 | 0.9 | 0.00 | 0.00 | 0.00 | 31 | 1017.1 |
| 20260507233005 | 73 | 60 | 0.0 | 0.9 | 0.00 | 0.00 | 0.00 | 31 | 1017.3 |
| 20260507231504 | 73 | 63 | 0.0 | 0.9 | 0.00 | 0.00 | 0.00 | 32 | 1017.5 |
| 20260507230013 | 73 | 120 | 0.0 | 0.9 | 0.00 | 0.00 | 0.00 | 35 | 1017.7 |
| 20260507224516 | 72 | 110 | 0.0 | 0.9 | 0.00 | 0.00 | 0.00 | 35 | 1018.0 |
| 20260507223014 | 72 | 15 | 0.0 | 0.9 | 0.00 | 0.00 | 0.00 | 33 | 1018.1 |
| 20260507221513 | 71 | 321 | 0.0 | 0.9 | 0.00 | 0.00 | 0.00 | 32 | 1018.2 |
| 20260507220009 | 71 | 297 | 0.0 | 1.7 | 0.00 | 0.00 | 0.00 | 29 | 1018.5 |
| 20260507214520 | 71 | 359 | 0.0 | 1.7 | 0.00 | 0.00 | 0.00 | 32 | 1018.6 |
| 20260507213006 | 70 | 221 | 0.0 | 1.7 | 0.00 | 0.00 | 0.00 | 35 | 1018.8 |
| 20260507211519 | 69 | 29 | 0.0 | 0.9 | 0.00 | 0.00 | 0.00 | 35 | 1019.1 |
| 20260507210017 | 71 | 55 | 0.0 | 0.9 | 0.00 | 0.00 | 0.00 | 36 | 1019.2 |
| 20260507204520 | 67 | 94 | 0.0 | 1.7 | 0.00 | 0.00 | 0.00 | 40 | 1019.4 |
| 20260507203020 | 67 | 207 | 0.0 | 1.7 | 0.00 | 0.00 | 0.00 | 41 | 1019.6 |
| 20260507201517 | 68 | 63 | 0.0 | 0.9 | 0.00 | 0.00 | 0.00 | 41 | 1019.7 |
| 20260507200014 | 66 | 302 | 0.0 | 1.7 | 0.00 | 0.00 | 0.00 | 45 | 1019.8 |
| 20260507194511 | 67 | 56 | 0.0 | 1.7 | 0.00 | 0.00 | 0.00 | 44 | 1019.9 |
| 20260507193022 | 66 | 49 | 0.0 | 0.9 | 0.00 | 0.00 | 0.00 | 45 | 1020.1 |
| 20260507191524 | 65 | 75 | 0.0 | 3.5 | 0.00 | 0.00 | 0.00 | 46 | 1020.3 |
| 20260507190022 | 65 | 53 | 0.0 | 0.9 | 0.00 | 0.00 | 0.00 | 47 | 1020.3 |
| 20260507184523 | 63 | 60 | 0.0 | 0.9 | 0.00 | 0.00 | 0.00 | 50 | 1020.5 |
| 20260507183021 | 62 | 296 | 0.0 | 0.9 | 0.00 | 0.00 | 0.00 | 49 | 1020.5 |
| 20260507181519 | 62 | 298 | 0.0 | 0.9 | 0.00 | 0.00 | 0.00 | 50 | 1020.7 |
| 20260507180013 | 62 | 63 | 0.0 | 1.7 | 0.00 | 0.00 | 0.00 | 51 | 1020.8 |
| 20260507174515 | 61 | 58 | 0.0 | 2.6 | 0.00 | 0.00 | 0.00 | 52 | 1021.0 |
| 20260507173022 | 59 | 91 | 0.0 | 0.9 | 0.00 | 0.00 | 0.00 | 54 | 1020.9 |
| 20260507171508 | 59 | 304 | 0.0 | 2.6 | 0.00 | 0.00 | 0.00 | 54 | 1021.0 |
| 20260507170003 | 59 | 58 | 0.0 | 0.0 | 0.00 | 0.00 | 0.00 | 54 | 1020.9 |
| 20260507164504 | 59 | 159 | 0.0 | 1.7 | 0.00 | 0.00 | 0.00 | 56 | 1020.9 |
| 20260507163022 | 57 | 72 | 0.0 | 0.0 | 0.00 | 0.00 | 0.00 | 56 | 1020.9 |
| 20260507161523 | 56 | 90 | 0.0 | 0.0 | 0.00 | 0.00 | 0.00 | 57 | 1021.0 |
| 20260507160018 | 56 | 122 | 0.0 | 0.0 | 0.00 | 0.00 | 0.00 | 57 | 1020.9 |
| 20260507154516 | 56 | 65 | 0.0 | 0.0 | 0.00 | 0.00 | 0.00 | 58 | 1021.1 |
| 20260507153014 | 55 | 64 | 0.0 | 0.0 | 0.00 | 0.00 | 0.00 | 58 | 1021.2 |
| 20260507151511 | 55 | 280 | 0.0 | 0.9 | 0.00 | 0.00 | 0.00 | 59 | 1021.3 |
| 20260507150008 | 54 | 316 | 0.0 | 0.9 | 0.00 | 0.00 | 0.00 | 60 | 1021.3 |
| 20260507144536 | 54 | 297 | 0.0 | 0.9 | 0.00 | 0.00 | 0.00 | 60 | 1021.3 |
| 20260507143025 | 54 | 293 | 0.0 | 0.0 | 0.00 | 0.00 | 0.00 | 60 | 1021.3 |
| 20260507141523 | 53 | 326 | 0.0 | 0.0 | 0.00 | 0.00 | 0.00 | 61 | 1021.1 |
| 20260507140024 | 53 | 304 | 0.0 | 0.0 | 0.00 | 0.00 | 0.00 | 61 | 1020.9 |
| 20260507134517 | 53 | 301 | 0.0 | 0.0 | 0.00 | 0.00 | 0.00 | 61 | 1020.8 |
| 20260507133013 | 53 | 301 | 0.0 | 0.0 | 0.00 | 0.00 | 0.00 | 61 | 1020.7 |
| 20260507131512 | 53 | 301 | 0.0 | 0.0 | 0.00 | 0.00 | 0.00 | 61 | 1020.8 |
| 20260507130026 | 53 | 39 | 0.0 | 0.0 | 0.00 | 0.00 | 0.00 | 62 | 1020.9 |
| 20260507124527 | 53 | 39 | 0.0 | 0.0 | 0.00 | 0.00 | 0.00 | 62 | 1020.9 |
| 20260507123026 | 53 | 34 | 0.0 | 0.0 | 0.00 | 0.00 | 0.00 | 61 | 1020.9 |
| 20260507121524 | 53 | 34 | 0.0 | 0.0 | 0.00 | 0.00 | 0.00 | 61 | 1021.0 |
| 20260507120020 | 53 | 72 | 0.0 | 0.0 | 0.00 | 0.00 | 0.00 | 61 | 1021.1 |
| 20260507114518 | 54 | 300 | 0.0 | 0.0 | 0.00 | 0.00 | 0.00 | 62 | 1021.2 |
| 20260507113014 | 54 | 300 | 0.0 | 0.0 | 0.00 | 0.00 | 0.00 | 62 | 1021.3 |
| 20260507111517 | 54 | 326 | 0.0 | 0.0 | 0.00 | 0.00 | 0.00 | 62 | 1021.3 |
| 20260507110008 | 54 | 297 | 0.0 | 0.0 | 0.00 | 0.00 | 0.00 | 64 | 1021.3 |
| 20260507104509 | 53 | 297 | 0.0 | 0.0 | 0.00 | 0.00 | 0.00 | 66 | 1021.4 |
| 20260507103004 | 54 | 297 | 0.0 | 0.0 | 0.00 | 0.00 | 0.00 | 65 | 1021.5 |
| 20260507101522 | 54 | 295 | 0.0 | 0.0 | 0.00 | 0.00 | 0.00 | 65 | 1021.5 |
| 20260507100020 | 54 | 302 | 0.0 | 0.0 | 0.00 | 0.00 | 0.00 | 65 | 1021.6 |
| 20260507094524 | 54 | 303 | 0.0 | 0.9 | 0.00 | 0.00 | 0.00 | 65 | 1021.7 |
| 20260507093021 | 54 | 265 | 0.0 | 0.9 | 0.00 | 0.00 | 0.00 | 65 | 1021.8 |
| 20260507091514 | 54 | 238 | 0.0 | 0.0 | 0.00 | 0.00 | 0.00 | 65 | 1021.9 |
| 20260507090011 | 54 | 261 | 0.0 | 0.9 | 0.00 | 0.00 | 0.00 | 65 | 1022.0 |
| 20260507084507 | 54 | 298 | 0.0 | 0.9 | 0.00 | 0.00 | 0.00 | 64 | 1022.0 |
| 20260507083026 | 54 | 243 | 0.0 | 0.0 | 0.00 | 0.00 | 0.00 | 64 | 1021.9 |